FW2827 Weather Reports


Display with metric or nautical units.
time (UTC)temp
F
wind
direction
speed
MPH
gust
MPH
rain 1hr
in
rain 24hr
in
rain mn
in
humidity
%
barometer
mb
20190825110024 82 163 2.0 5.0 0.00 0.01 0.00 79 1018.8
20190825104512 82 137 3.0 10.0 0.00 0.01 0.00 79 1018.8
20190825103005 82 126 1.0 9.0 0.00 0.01 0.00 79 1018.6
20190825101512 82 180 6.0 12.0 0.00 0.01 0.00 79 1018.4
20190825100015 82 171 6.0 11.0 0.00 0.01 0.00 79 1018.4
20190825094509 82 104 6.0 12.0 0.00 0.01 0.00 80 1018.2
20190825093206 82 112 4.0 11.0 0.00 0.01 0.00 80 1018.2
20190825091720 82 148 4.0 9.0 0.00 0.01 0.00 80 1018.3
20190825090225 82 84 3.0 12.0 0.00 0.01 0.00 79 1018.2
20190825084650 82 155 5.0 14.0 0.00 0.01 0.00 79 1018.1
20190825083136 82 165 4.0 12.0 0.00 0.01 0.00 79 1017.8
20190825081704 82 80 5.0 15.0 0.00 0.01 0.00 79 1017.7
20190825080255 82 117 3.0 10.0 0.00 0.01 0.00 79 1017.7
20190825074657 82 108 6.0 15.0 0.00 0.01 0.00 79 1017.8
20190825073231 82 69 8.0 20.0 0.00 0.01 0.00 79 1017.9
20190825071706 82 64 5.0 11.0 0.00 0.01 0.00 80 1017.9
20190825070136 82 175 1.0 14.0 0.00 0.01 0.00 80 1018.0
20190825064721 82 120 8.0 13.0 0.00 0.01 0.00 80 1018.1
20190825063124 82 169 1.0 11.0 0.00 0.01 0.00 81 1018.1
20190825061703 82 151 4.0 14.0 0.00 0.01 0.00 81 1018.3
20190825060108 82 96 0.0 9.0 0.00 0.01 0.00 81 1018.5
20190825054611 82 133 4.0 9.0 0.00 0.01 0.00 81 1018.5
20190825053124 82 188 3.0 12.0 0.00 0.01 0.00 81 1018.4
20190825051615 82 116 7.0 12.0 0.00 0.01 0.00 81 1018.5
20190825050132 82 123 3.0 9.0 0.00 0.01 0.00 81 1018.9
20190825044625 83 134 3.0 11.0 0.00 0.01 0.00 81 1019.0
20190825043051 83 83 4.0 10.0 0.00 0.01 0.00 81 1019.2
20190825041557 83 117 4.0 11.0 0.00 0.01 0.00 81 1019.2
20190825040107 83 201 5.0 12.0 0.00 0.01 0.00 81 1019.3
20190825034553 83 115 2.0 12.0 0.00 0.01 0.01 81 1019.3
20190825033057 83 94 5.0 11.0 0.00 0.01 0.01 81 1019.4
20190825031619 83 89 6.0 12.0 0.00 0.01 0.01 81 1019.6
20190825030116 83 151 4.0 13.0 0.00 0.01 0.01 81 1019.8
20190825024605 83 160 7.0 14.0 0.00 0.01 0.01 81 1019.8
20190825023125 83 108 5.0 12.0 0.00 0.01 0.01 81 1019.9
20190825021556 83 129 4.0 13.0 0.00 0.01 0.01 81 1020.0
20190825020105 83 171 6.0 14.0 0.00 0.01 0.01 81 1019.9
20190825014556 83 182 5.0 17.0 0.00 0.01 0.01 81 1019.8
20190825013024 83 150 7.0 15.0 0.00 0.01 0.01 82 1019.7
20190825011529 83 153 7.0 16.0 0.00 0.01 0.01 82 1019.4
20190825010050 83 128 7.0 12.0 0.00 0.01 0.01 82 1019.3
20190825004545 83 171 4.0 15.0 0.00 0.04 0.01 81 1019.2
20190825003043 83 157 8.0 16.0 0.00 0.04 0.01 81 1018.9
20190825001559 83 103 5.0 14.0 0.00 0.04 0.01 81 1018.9
20190825000037 83 169 3.0 14.0 0.00 0.04 0.01 82 1018.8
20190824234550 84 92 4.0 17.0 0.00 0.04 0.01 81 1018.7
20190824233031 84 139 4.0 12.0 0.00 0.04 0.01 81 1018.6
20190824231541 84 60 5.0 12.0 0.00 0.04 0.01 80 1018.5
20190824230052 84 137 4.0 19.0 0.00 0.04 0.01 80 1018.4
20190824224558 84 80 8.0 20.0 0.00 0.04 0.01 80 1018.4
20190824223025 84 79 8.0 20.0 0.00 0.04 0.01 80 1018.5
20190824221531 85 117 5.0 23.0 0.00 0.04 0.01 79 1018.5
20190824220020 85 92 9.0 21.0 0.00 0.04 0.01 79 1018.4
20190824214519 86 164 6.0 26.0 0.00 0.04 0.01 79 1018.3
20190824213026 86 167 4.0 17.0 0.00 0.04 0.01 78 1018.3
20190824211520 86 78 5.0 19.0 0.00 0.04 0.01 78 1018.2
20190824210017 87 86 3.0 12.0 0.00 0.04 0.01 77 1018.2
20190824204540 87 144 7.0 13.0 0.00 0.04 0.01 76 1018.2
20190824203029 87 76 3.0 19.0 0.00 0.04 0.01 76 1018.1
20190824201518 88 83 7.0 19.0 0.00 0.04 0.01 76 1018.2
20190824200052 87 114 7.0 17.0 0.00 0.04 0.01 75 1018.2
20190824194537 88 71 5.0 18.0 0.00 0.04 0.01 75 1018.1
20190824193011 88 78 8.0 17.0 0.00 0.04 0.01 75 1018.2
20190824191510 89 81 6.0 18.0 0.00 0.04 0.01 75 1018.2
20190824190017 89 67 8.0 15.0 0.00 0.04 0.01 75 1018.2
20190824184524 88 76 9.0 16.0 0.00 0.04 0.01 75 1018.3
20190824183015 90 89 10.0 14.0 0.00 0.04 0.01 74 1018.4
20190824181508 90 84 10.0 14.0 0.00 0.04 0.01 74 1018.5
20190824180013 90 79 9.0 13.0 0.00 0.04 0.01 73 1018.8
20190824174508 89 78 10.0 14.0 0.00 0.04 0.01 73 1019.0
20190824173015 90 51 9.0 14.0 0.00 0.04 0.01 74 1019.2
20190824171513 90 64 9.0 13.0 0.00 0.04 0.01 74 1019.0
20190824170002 90 78 9.0 12.0 0.00 0.04 0.01 74 1019.1
20190824164501 89 85 10.0 13.0 0.00 0.04 0.01 74 1019.3
20190824163232 90 86 9.0 12.0 0.00 0.04 0.01 74 1019.5
20190824161657 90 76 9.0 13.0 0.00 0.04 0.01 74 1019.6
20190824160142 91 84 8.0 12.0 0.00 0.04 0.01 73 1019.8
20190824154659 90 87 9.0 13.0 0.00 0.04 0.01 73 1019.9
20190824153240 89 71 10.0 14.0 0.00 0.04 0.01 75 1020.1
20190824151743 91 76 8.0 16.0 0.00 0.04 0.01 74 1020.0
20190824150313 90 74 7.0 16.0 0.00 0.04 0.01 74 1020.2
20190824144651 89 75 8.0 14.0 0.00 0.04 0.01 76 1020.3
20190824143436 89 68 8.0 15.0 0.00 0.04 0.01 77 1020.3
20190824141557 89 162 8.0 15.0 0.00 0.04 0.01 77 1020.4
20190824140117 88 55 6.0 14.0 0.00 0.04 0.01 78 1020.3
20190824134650 87 82 6.0 15.0 0.00 0.04 0.01 79 1020.2
20190824133108 86 130 2.0 11.0 0.00 0.04 0.01 80 1020.2
20190824131701 87 182 4.0 14.0 0.00 0.04 0.01 80 1020.1
20190824130130 85 142 4.0 12.0 0.00 0.04 0.01 81 1020.1
20190824124622 84 82 3.0 10.0 0.00 0.04 0.01 82 1020.0
20190824123048 83 86 7.0 14.0 0.01 0.04 0.01 84 1020.1
20190824121625 84 85 4.0 10.0 0.01 0.04 0.01 83 1020.0
20190824120117 84 82 5.0 11.0 0.01 0.04 0.01 85 1019.7
20190824114539 83 208 1.0 8.0 0.01 0.04 0.01 84 1019.6
20190824113045 83 65 3.0 7.0 0.00 0.03 0.00 84 1019.3
20190824111602 82 150 0.0 8.0 0.00 0.03 0.00 84 1019.2